Regional Weather Roundup
Issued by NWS Sterling, VA

Home | Current Version | Previous Version | Graphics & Text | Print | Product List | Glossary On
Versions: 1 2 3 4 5 6 7 8 9 10 11 12 13 14 15 16 17 18 19 20 21 22 23 24 25 26 27 28 29 30 31 32 33 34 35 36 37 38 39 40 41 42 43 44 45 46 47 48 49 50
000
ASUS41 KLWX 220811
RWRLWX

REGIONAL WEATHER ROUNDUP
NATIONAL WEATHER SERVICE BALTIMORE MD/WASHINGTON DC
400 AM EDT FRI SEP 22 2017

Note: "FAIR" indicates few or no clouds below 12,000 feet
with no significant weather and/or obstructions to visibility.
 TC=TEMPERATURE CELSIUS

 * =Non NWS site. Station does not report precipitation (e.g. rain,
    snow, etc.), thunder, or fog.

DCZ001-MDZ009-015-VAZ040>042-051-053>054-220900-
WASHINGTON METRO

CITY           SKY/WX    TMP DP  RH WIND       PRES   REMARKS
WASHINGTON NAT CLOUDY    72  66  81 N8        30.03S
DULLES         CLOUDY    67  64  90 NW5       30.04F
ANDREWS AFB    CLEAR     69  63  83 N5        30.01F
FT BELVOIR     MOCLDY    67  65  95 CALM      30.02F
QUANTICO       CLOUDY    69  65  86 NW8       30.03F
COLLEGE PARK*  CLOUDY    65  64  97 CALM      30.02S
LEESBURG*      CLOUDY    64  64 100 W3        30.06S
MANASSAS*      CLOUDY    63  62  97 CALM      30.04F
GAITHERSBURG*  CLOUDY    66  63  90 CALM      30.06S

$$

MDZ006>007-011-014-220900-
BALTIMORE METRO

CITY           SKY/WX    TMP DP  RH WIND       PRES   REMARKS
BWI AIRPORT    CLOUDY    67  65  93 CALM      30.02S
MD SCIENCE CTR   N/A     76  65  68 MISG      30.02S
MARTIN STATE   CLOUDY    70  68  94 CALM      30.03S
ANNAPOLIS      PTCLDY    75  70  84 N5        30.01S
FORT MEADE*    MOCLDY    63  63 100 CALM      30.05S

$$

MDZ012-015-019>023-220900-
MARYLAND EASTERN SHORE

CITY           SKY/WX    TMP DP  RH WIND       PRES   REMARKS
OCEAN CITY     MOCLDY    69  67  93 W7        30.00F
SALISBURY      CLOUDY    66  66 100 CALM      29.99F
CAMBRIDGE*     CLEAR     68  68 100 CALM      30.00S
EASTON*        MOCLDY    69  67  93 N3        30.04S

$$

MDZ017>025-220900-
SOUTHERN MARYLAND

CITY           SKY/WX    TMP DP  RH WIND       PRES   REMARKS
PATUXENT RIVER CLOUDY    71  68  90 W9        30.00F
ST INIGOES     CLOUDY    71  68  90 W5        30.00F
LEONARDTOWN*   CLOUDY    68  66  94 W3        30.02F

$$

MDZ003>005-220900-
NORTH CENTRAL MARYLAND

CITY           SKY/WX    TMP DP  RH WIND       PRES   REMARKS
FREDERICK*     MOCLDY    64  64 100 CALM      30.07F FOG
HAGERSTOWN APT CLOUDY    66  62  87 CALM      30.08R
WESTMINSTER*   CLOUDY    66  64  94 CALM      30.06R

$$

MDZ501>502-220900-
WESTERN MARYLAND

CITY           SKY/WX    TMP DP  RH WIND       PRES   REMARKS
OAKLAND*       PTCLDY    63  54  72 SE3       30.15F
CUMBERLAND*    PTCLDY    61  61 100 CALM      30.14S

$$

VAZ025>031-220900-
SHENANDOAH VALLEY

CITY           SKY/WX    TMP DP  RH WIND       PRES   REMARKS
WINCHESTER*    PTCLDY    61  59  94 CALM      30.08S
FRONT ROYAL*   MOCLDY    64  61  88 SW6       30.07S
LURAY*         PTCLDY    61  61 100 CALM      30.09F
NEW MARKET*    PTCLDY    56  55  96 CALM      30.09F
STAUNTON*      PTCLDY    57  57  99 CALM      30.12S FOG
WAYNESBORO*    PTCLDY    60  60 100 S5        30.11F

$$

WVZ021-048>050-054>055-220900-
EASTERN WEST VIRGINIA PANHANDLE

CITY           SKY/WX    TMP DP  RH WIND       PRES   REMARKS
MARTINSBURG    PTCLDY    62  60  93 CALM      30.07R
PETERSBURG*    PTCLDY    58  58  98 CALM      30.12S FOG

$$

VAZ036>039-050-220900-
CENTRAL FOOTHILLS

CITY           SKY/WX    TMP DP  RH WIND       PRES   REMARKS
CHARLOTTESVILL CLEAR     66  63  90 CALM      30.06F
CULPEPER*      PTCLDY    64  63  94 CALM      30.05F
ORANGE*        PTCLDY    63  61  94 CALM      30.05S
GORDONSVILLE*  PTCLDY    62  62 100 CALM      30.05S
WARRENTON*     MOCLDY    61  58  91 CALM      30.03F FOG

$$

VAZ055>057-220900-
NORTH AND CENTRAL PIEDMONT

CITY           SKY/WX    TMP DP  RH WIND       PRES   REMARKS
FREDERICKSBRG* CLOUDY    68  67  96 W5        30.02F
STAFFORD*      CLOUDY    65  65 100 NW5       30.07F

$$

NCZ024-NYZ072-PAZ021-071-VAZ022-071-220900-
OTHER REGIONAL OBSERVATIONS

CITY           SKY/WX    TMP DP  RH WIND       PRES   REMARKS
NEW YORK CITY  CLOUDY    69  49  48 VRB6G23   30.02F
PHILADELPHIA   CLOUDY    72  60  66 N10       30.01F
PITTSBURGH     PTCLDY    63  61  93 CALM      30.11S
ROANOKE        PTCLDY    69  66  90 CALM      30.11F
RICHMOND       PTCLDY    66  64  93 SW3       30.03F
RALEIGH        PTCLDY    64  64 100 CALM      30.05S

$$

ANZ530>537-220900-
MARINE OBSERVATIONS

STATION/POSITION TIME  TEMP    WIND        PRES
                       AIR SEA DIR/SP/G
                 (UTC) (F)     (DEG/KT/KT) (MB)
THOMAS PT LIGHT  0800   75 76  360/ 10/ 11   N/A
BALT KEY BRIDGE  0742   74      20/  4/  5 1016.3R
COVE POINT       0742   72     290/  6/  8 1016.6R
LEWISETTA        0742   72 77  260/  9/ 10 1015.8F
SOLOMONS ISLAND  0742   73 77  270/  5/  7 1015.6F
PINEY POINT      0742          320/  8/  9   N/A

$$




USA.gov is the U.S. government's official web portal to all federal, state and local government web resources and services.